Location: Granada Hills
(34.2650°N, 118.5220°W)
Time: 14:47:01
(UTC-07:00)

deb Kosmos-1763 - Visible Passes

Search period start: 31 May 2016 00:00
Search period end: 10 June 2016 00:00
Orbit: 509 x 529 km, 74.0° (Epoch: 30 May)

Date Brightness Start Highest point End Pass type
(mag) Time Alt. Az. Time Alt. Az. Time Alt. Az.
31 May 7.1 01:38:47 14° NE 01:38:47 14° NE 01:39:31 10° NE visible
31 May 6.8 03:13:51 12° NW 03:13:51 12° NW 03:14:40 10° NW visible
01 Jun 7.2 01:24:43 13° NE 01:24:43 13° NE 01:25:12 10° NE visible
01 Jun 6.8 02:59:47 12° NW 02:59:47 12° NW 03:00:33 10° NNW visible
02 Jun 7.3 01:10:37 11° NE 01:10:37 11° NE 01:10:52 10° NE visible
02 Jun 6.9 02:45:40 12° NW 02:45:40 12° NW 02:46:25 10° NNW visible
03 Jun 7.4 00:56:28 10° NE 00:56:28 10° NE 00:56:30 10° NE visible
03 Jun 6.9 02:31:32 12° NW 02:31:32 12° NW 02:32:15 10° NNW visible
04 Jun 7.0 02:17:20 13° NNW 02:17:20 13° NNW 02:18:02 10° NNW visible
05 Jun 7.0 02:03:06 13° NNW 02:03:06 13° NNW 02:03:49 10° NNW visible
06 Jun 7.1 01:48:49 13° NNW 01:48:49 13° NNW 01:49:34 10° NNW visible
07 Jun 7.1 01:34:30 13° NNW 01:34:30 13° NNW 01:35:17 10° NNW visible
08 Jun 7.1 01:20:08 14° NNW 01:20:08 14° NNW 01:21:00 10° NNW visible
09 Jun 7.1 01:05:43 15° NNW 01:05:43 15° NNW 01:06:41 10° NNW visible
